Time,TemperatureF,DewpointF,PressureIn,WindDirection,WindDirectionDegrees,WindSpeedMPH,WindSpeedGustMPH,Humidity,HourlyPrecipIn,Conditions,Clouds,dailyrainin,SoftwareType,DateUTC
2013-09-10 15:15:00,70.0,58.0,25.76,ENE,59,7.0,9.0,66,0.00,,,0.16,weatherlink.com 1.10,2013-09-10 21:15:00,
2013-09-10 15:25:00,69.8,58.0,25.76,NNE,14,6.0,10.0,66,0.00,,,0.16,weatherlink.com 1.10,2013-09-10 21:25:00,
2013-09-10 15:40:00,69.6,59.0,25.75,ENE,63,8.0,11.0,68,0.00,,,0.16,weatherlink.com 1.10,2013-09-10 21:40:00,
2013-09-10 15:55:00,69.7,59.0,25.75,NE,49,5.0,11.0,69,0.00,,,0.16,weatherlink.com 1.10,2013-09-10 21:55:00,
2013-09-10 16:10:00,69.6,59.0,25.75,NE,49,11.0,14.0,69,0.00,,,0.16,weatherlink.com 1.10,2013-09-10 22:10:00,
2013-09-10 16:25:00,70.8,59.0,25.75,NE,49,9.0,13.0,66,0.00,,,0.16,weatherlink.com 1.10,2013-09-10 22:25:00,
2013-09-10 16:41:00,70.0,55.0,25.75,NE,49,11.0,14.0,60,0.00,,,0.16,weatherlink.com 1.10,2013-09-10 22:41:00,
2013-09-10 16:56:00,70.2,55.0,25.75,ENE,69,12.0,13.0,58,0.00,,,0.16,weatherlink.com 1.10,2013-09-10 22:56:00,
2013-09-10 17:11:00,69.9,55.0,25.75,ENE,67,10.0,13.0,59,0.00,,,0.16,weatherlink.com 1.10,2013-09-10 23:11:00,
2013-09-10 17:26:00,69.6,55.0,25.75,NE,44,11.0,12.0,61,0.00,,,0.16,weatherlink.com 1.10,2013-09-10 23:26:00,
2013-09-10 17:41:00,69.0,57.0,25.76,ENE,66,12.0,14.0,66,0.00,,,0.16,weatherlink.com 1.10,2013-09-10 23:41:00,
2013-09-10 17:56:00,68.4,57.0,25.76,ENE,75,8.0,11.0,67,0.00,,,0.16,weatherlink.com 1.10,2013-09-10 23:56:00,
2013-09-10 18:11:00,68.1,58.0,25.75,ENE,66,9.0,11.0,70,0.00,,,0.16,weatherlink.com 1.10,2013-09-11 00:11:00,
2013-09-10 18:26:00,68.1,58.0,25.76,ENE,65,7.0,11.0,71,0.00,,,0.16,weatherlink.com 1.10,2013-09-11 00:26:00,
2013-09-10 18:41:00,67.7,59.0,25.76,ENE,59,7.0,10.0,73,0.00,,,0.16,weatherlink.com 1.10,2013-09-11 00:41:00,
2013-09-10 19:11:00,66.8,58.0,25.76,NE,44,4.0,6.0,73,0.00,,,0.16,weatherlink.com 1.10,2013-09-11 01:11:00,
2013-09-10 19:26:00,66.2,58.0,25.77,NE,49,2.0,5.0,76,0.00,,,0.16,weatherlink.com 1.10,2013-09-11 01:26:00,
2013-09-10 19:41:00,65.9,59.0,25.77,NE,54,4.0,5.0,78,0.00,,,0.16,weatherlink.com 1.10,2013-09-11 01:41:00,
2013-09-10 19:56:00,65.2,60.0,25.77,ENE,64,2.0,5.0,82,0.00,,,0.16,weatherlink.com 1.10,2013-09-11 01:56:00,
2013-09-10 20:11:00,64.9,60.0,25.77,NE,56,3.0,5.0,84,0.00,,,0.16,weatherlink.com 1.10,2013-09-11 02:11:00,
2013-09-10 20:26:00,64.7,60.0,25.78,North,360,2.0,3.0,85,0.00,,,0.16,weatherlink.com 1.10,2013-09-11 02:26:00,
2013-09-10 20:41:00,64.3,60.0,25.78,North,8,3.0,5.0,87,0.00,,,0.16,weatherlink.com 1.10,2013-09-11 02:41:00,
2013-09-10 21:11:00,62.6,59.0,25.78,NNE,25,4.0,5.0,89,0.00,,,0.16,weatherlink.com 1.10,2013-09-11 03:11:00,
2013-09-10 21:26:00,62.1,59.0,25.78,NE,46,5.0,6.0,88,0.00,,,0.16,weatherlink.com 1.10,2013-09-11 03:26:00,
2013-09-10 21:41:00,61.4,58.0,25.79,NNE,33,4.0,4.0,89,0.00,,,0.16,weatherlink.com 1.10,2013-09-11 03:41:00,
2013-09-10 21:56:00,61.0,58.0,25.79,NE,55,2.0,4.0,90,0.00,,,0.16,weatherlink.com 1.10,2013-09-11 03:56:00,
2013-09-10 22:11:00,61.5,58.0,25.79,ENE,72,3.0,4.0,88,0.00,,,0.16,weatherlink.com 1.10,2013-09-11 04:11:00,
2013-09-10 22:41:00,61.3,58.0,25.80,ENE,64,1.0,2.0,88,0.00,,,0.16,weatherlink.com 1.10,2013-09-11 04:41:00,
2013-09-10 22:56:00,61.5,57.0,25.80,ENE,58,2.0,3.0,86,0.00,,,0.16,weatherlink.com 1.10,2013-09-11 04:56:00,
2013-09-10 23:11:00,61.4,57.0,25.80,NE,53,3.0,3.0,84,0.00,,,0.16,weatherlink.com 1.10,2013-09-11 05:11:00,
2013-09-10 23:26:00,61.7,57.0,25.80,NE,38,2.0,4.0,85,0.00,,,0.16,weatherlink.com 1.10,2013-09-11 05:26:00,
2013-09-10 23:41:00,61.6,57.0,25.81,East,79,3.0,4.0,84,0.00,,,0.16,weatherlink.com 1.10,2013-09-11 05:41:00,
2013-09-10 23:56:00,62.0,56.0,25.81,ENE,75,4.0,4.0,81,0.00,,,0.16,weatherlink.com 1.10,2013-09-11 05:56:00,